Tracking 17267 objects as of 31-August-2015
HD Live streaming from Space Station

NAVSTAR 30 (USA 88)

Track NAVSTAR 30 (USA 88) now!
NAVSTAR 30 (USA 88) is classified as:


NORAD ID: 22446
Int'l Code: 1993-007A
Perigee: 21,289.9 km
Apogee: 21,411.8 km
Inclination: 55.4 °
Period: 765.6 minutes
Semi major axis: 27721 km
RCS: 2.5118 m2 (large)
Launch date: February 3, 1993
Source: United States (US)
PRN:
Your satellite tracking list
Your tracking list is empty





NASA's NSSDC Master Catalog

Two Line Element Set (TLE):
1 22446U 93007A   15243.46388403 -.00000066  00000-0  00000+0 0  9990
2 22446 055.3855 022.7353 0021999 322.1471 062.0329 01.88091823159897

Source of the keplerian elements: AFSPC

N2YO: 279